Location: ???? ?????
(37.9132°N, 22.9869°E)
Time: 09:44:44
(UTC+00:00)

Cosmos 2263 Rocket - Pass Details

Date: 04 August 2024
Orbit: 821 x 849 km, 71.0° (Epoch: 14 September)

Event Time Altitude Azimuth Distance (km) Brightness Sun altitude
Rises 22:48:21 0° 338° (NNW) 3,394 6.2 -35.1°
Reaches altitude 10° 22:50:47 10° 339° (NNW) 2,460 5.3 -35.0°
Enters shadow 22:54:13 39° 344° (NNW) 1,253 3.4 -35.0°
